WD6AWP Weather Reports


time (UTC)temp
C
wind
direction
speed
KPH
gust
KPH
rain 1hr
cm
rain 24hr
cm
rain mn
cm
humidity
%
barometer
mb
20260902024542 21 281 14.5 22.5 0.00 0.00 0.00 81 1013.4
20260902023045 21 271 9.7 19.3 0.00 0.00 0.00 81 1013.3
20260902021543 21 263 12.9 22.5 0.00 0.00 0.00 81 1013.4
20260902020040 21 253 16.1 29.0 0.00 0.00 0.00 81 1013.5
20260902014543 22 289 17.7 29.0 0.00 0.00 0.00 79 1013.4
20260902013037 22 273 14.5 25.7 0.00 0.00 0.00 80 1013.3
20260902011543 22 308 19.3 29.0 0.00 0.00 0.00 78 1013.4
20260902010034 23 241 19.3 32.2 0.00 0.00 0.00 76 1013.5
20260902004533 23 265 16.1 32.2 0.00 0.00 0.00 77 1013.6
20260902003031 23 242 14.5 29.0 0.00 0.00 0.00 77 1013.6
20260902001529 23 234 16.1 32.2 0.00 0.00 0.00 76 1013.7
20260902000028 24 271 12.9 29.0 0.00 0.00 0.00 75 1013.8
20260901234527 24 273 20.9 30.6 0.00 0.00 0.00 75 1013.9
20260901233026 25 274 19.3 29.0 0.00 0.00 0.00 74 1013.9
20260901231526 25 269 12.9 30.6 0.00 0.00 0.00 74 1013.9
20260901230025 25 266 14.5 22.5 0.00 0.00 0.00 73 1013.9
20260901224524 25 269 11.3 27.4 0.00 0.00 0.00 74 1014.1
20260901223024 25 289 17.7 27.4 0.00 0.00 0.00 73 1014.1
20260901221523 25 244 12.9 29.0 0.00 0.00 0.00 74 1014.2
20260901220022 25 234 12.9 27.4 0.00 0.00 0.00 74 1014.4
20260901214537 25 271 14.5 27.4 0.00 0.00 0.00 72 1014.6
20260901213021 25 279 11.3 27.4 0.00 0.00 0.00 72 1014.7
20260901211522 25 266 11.3 25.7 0.00 0.00 0.00 73 1014.8
20260901210020 25 239 12.9 25.7 0.00 0.00 0.00 72 1014.9
20260901204522 25 281 17.7 27.4 0.00 0.00 0.00 71 1014.9
20260901203018 25 286 14.5 24.1 0.00 0.00 0.00 71 1014.9
20260901201517 25 241 16.1 24.1 0.00 0.00 0.00 70 1015.1
20260901200017 25 265 12.9 24.1 0.00 0.00 0.00 72 1015.2
20260901194514 25 279 11.3 22.5 0.00 0.00 0.00 72 1015.3
20260901193012 25 253 9.7 22.5 0.00 0.00 0.00 72 1015.4
20260901191525 25 234 8.0 19.3 0.00 0.00 0.00 72 1015.6
20260901190010 25 292 11.3 20.9 0.00 0.00 0.00 71 1015.6
20260901184508 25 275 11.3 17.7 0.00 0.00 0.00 73 1015.7
20260901183007 24 261 8.0 17.7 0.00 0.00 0.00 74 1015.8
20260901181507 25 230 8.0 14.5 0.00 0.00 0.00 73 1015.7
20260901180005 25 250 6.4 17.7 0.00 0.00 0.00 73 1015.8
20260901174504 24 244 4.8 12.9 0.00 0.00 0.00 74 1015.8
20260901173002 25 271 6.4 16.1 0.00 0.00 0.00 73 1015.7
20260901171603 25 258 4.8 16.1 0.00 0.00 0.00 73 1015.6
20260901170056 24 268 4.8 16.1 0.00 0.00 0.00 73 1015.5
20260901164551 24 242 3.2 14.5 0.00 0.00 0.00 74 1015.4
20260901163055 24 261 1.6 11.3 0.00 0.00 0.00 75 1015.3
20260901161548 23 229 0.0 8.0 0.00 0.00 0.00 75 1015.2
20260901160044 24 263 4.8 12.9 0.00 0.00 0.00 74 1015.3
20260901154602 23 285 1.6 8.0 0.00 0.00 0.00 75 1015.4
20260901153044 23 300 0.0 0.0 0.00 0.00 0.00 76 1015.3
20260901151532 22 300 0.0 0.0 0.00 0.00 0.00 79 1015.2
20260901150027 21 300 0.0 0.0 0.00 0.00 0.00 83 1015.0
20260901144528 20 300 0.0 0.0 0.00 0.00 0.00 84 1015.0
20260901143021 20 300 0.0 0.0 0.00 0.00 0.00 86 1015.0
20260901141521 20 303 3.2 8.0 0.00 0.00 0.00 86 1015.0
20260901140017 20 306 1.6 8.0 0.00 0.00 0.00 86 1014.8
20260901134515 20 327 0.0 0.0 0.00 0.00 0.00 87 1014.5
20260901133015 20 327 3.2 8.0 0.00 0.00 0.00 87 1014.3
20260901131517 20 319 3.2 8.0 0.00 0.00 0.00 87 1014.2
20260901130014 20 311 0.0 0.0 0.00 0.00 0.00 88 1014.1
20260901124533 20 332 0.0 6.4 0.00 0.00 0.00 88 1014.1
20260901123013 20 360 0.0 4.8 0.00 0.00 0.00 88 1014.0
20260901121512 19 18 0.0 0.0 0.00 0.00 0.00 89 1013.9
20260901120011 19 12 0.0 1.6 0.00 0.00 0.00 90 1013.9
20260901114511 19 14 3.2 9.7 0.00 0.00 0.00 91 1013.7
20260901113010 19 27 3.2 6.4 0.00 0.00 0.00 91 1013.8
20260901111510 18 5 0.0 0.0 0.00 0.00 0.00 91 1014.0
20260901110009 18 5 1.6 4.8 0.00 0.00 0.00 92 1014.1
20260901104509 18 279 0.0 0.0 0.00 0.00 0.00 92 1014.2
20260901103007 18 279 0.0 0.0 0.00 0.00 0.00 92 1014.2
20260901101507 18 279 0.0 0.0 0.00 0.00 0.00 91 1014.1
20260901100005 18 278 0.0 0.0 0.00 0.00 0.00 91 1014.1
20260901094506 18 278 0.0 0.0 0.00 0.00 0.00 91 1014.1
20260901093002 18 278 0.0 0.0 0.00 0.00 0.00 91 1014.2
20260901091618 19 278 0.0 0.0 0.00 0.00 0.00 90 1014.0
20260901090105 19 279 0.0 0.0 0.00 0.00 0.00 90 1014.0
20260901084607 19 279 0.0 0.0 0.00 0.00 0.00 90 1014.0
20260901083104 20 279 0.0 0.0 0.00 0.00 0.00 90 1014.2
20260901081555 20 279 0.0 4.8 0.00 0.00 0.00 90 1014.1
20260901074552 20 278 0.0 0.0 0.00 0.00 0.00 89 1014.3
20260901073050 20 279 0.0 0.0 0.00 0.00 0.00 89 1014.4
20260901071549 20 279 0.0 6.4 0.00 0.00 0.00 89 1014.3
20260901070049 20 278 3.2 8.0 0.00 0.00 0.00 89 1014.3
20260901064544 20 278 0.0 0.0 0.00 0.00 0.00 89 1014.1
20260901063051 20 279 0.0 0.0 0.00 0.00 0.00 89 1014.0
20260901061543 20 279 0.0 11.3 0.00 0.00 0.00 88 1013.9
20260901060041 20 288 0.0 8.0 0.00 0.00 0.00 88 1013.8
20260901054540 20 284 4.8 11.3 0.00 0.00 0.00 88 1013.7
20260901053040 20 296 4.8 12.9 0.00 0.00 0.00 88 1013.7
20260901051539 20 280 1.6 11.3 0.00 0.00 0.00 87 1013.7
20260901050038 20 291 0.0 12.9 0.00 0.00 0.00 87 1013.5
20260901044538 21 288 3.2 12.9 0.00 0.00 0.00 87 1013.4
20260901043038 21 267 6.4 12.9 0.00 0.00 0.00 87 1013.4
20260901041537 21 286 3.2 12.9 0.00 0.00 0.00 86 1013.4
20260901040040 21 302 4.8 16.1 0.00 0.00 0.00 86 1013.2
20260901034539 21 289 0.0 11.3 0.00 0.00 0.00 85 1012.9
20260901033035 21 283 3.2 12.9 0.00 0.00 0.00 85 1012.5
20260901031537 21 281 4.8 11.3 0.00 0.00 0.00 86 1012.5
20260901030034 21 259 9.7 17.7 0.00 0.00 0.00 85 1012.2